Location: Unspecified
(0.0000°N, 0.0000°E)
Time: 17:51:24
(UTC+00:00)

STARLINK 1021 - Pass Details

Date: 19 January 2020
Orbit: 347 x 352 km, 53.0° (Epoch: 17 January)

Event Time Altitude Azimuth Distance (km) Brightness Sun altitude
Exits shadow 04:43:55 29° 41° (NE) 667 4.2 -20.2°
Drops below altitude 10° 04:45:29 10° 37° (NE) 1,293 5.7 -19.9°
Sets 04:47:29 0° 36° (NE) 2,130 6.8 -19.4°
